This is the latest recevied weather packets stored in our database for station/object N3EDS. If no packets are shown the sender has not sent any weather packets the latest 10 day(s).
| Time | Temp. | Humidity | Pressure | Rain* | Wind** | Luminosity | Snow |
|---|---|---|---|---|---|---|---|
| 1777799523 | -1.67° C | 99% | 1015.6 hPa | 0 mm | - | 0 W/m² | - |
| 1777799218 | -1.11° C | 98% | 1015.7 hPa | 0 mm | - | 0 W/m² | - |
| 1777798914 | -1.11° C | 98% | 1015.7 hPa | 0 mm | - | 0 W/m² | - |
| 1777798610 | -1.11° C | 97% | 1015.6 hPa | 0 mm | - | 0 W/m² | - |
| 1777798308 | -0.56° C | 97% | 1015.8 hPa | 0 mm | - | 0 W/m² | - |
| 1777798003 | -0.56° C | 96% | 1015.7 hPa | 0 mm | - | 0 W/m² | - |
| 1777797702 | -0.56° C | 96% | 1015.5 hPa | 0 mm | - | 0 W/m² | - |
| 1777797399 | -0.56° C | 96% | 1015.5 hPa | 0 mm | - | 0 W/m² | - |
| 1777797096 | 0° C | 95% | 1015.6 hPa | 0 mm | - | 0 W/m² | - |
| 1777796792 | 0° C | 95% | 1015.7 hPa | 0 mm | - | 0 W/m² | - |
| 1777796490 | 0° C | 95% | 1015.6 hPa | 0 mm | - | 0 W/m² | - |
| 1777796190 | 0° C | 96% | 1015.6 hPa | 0 mm | - | 0 W/m² | - |
| 1777795886 | -0.56° C | 97% | 1015.4 hPa | 0 mm | - | 0 W/m² | - |
| 1777795582 | -0.56° C | 97% | 1015.7 hPa | 0 mm | - | 0 W/m² | - |
| 1777795279 | -0.56° C | 96% | 1015.2 hPa | 0 mm | - | 0 W/m² | - |
| 1777794976 | -0.56° C | 96% | 1015.3 hPa | 0 mm | - | 0 W/m² | - |
| 1777794673 | -0.56° C | 96% | 1015.6 hPa | 0 mm | - | 0 W/m² | - |
| 1777794368 | -1.11° C | 95% | 1015.2 hPa | 0 mm | - | 0 W/m² | - |
| 1777794064 | -1.11° C | 94% | 1015.4 hPa | 0 mm | - | 0 W/m² | - |
| 1777793761 | -0.56° C | 94% | 1015.3 hPa | 0 mm | - | 0 W/m² | - |
| 1777793459 | -0.56° C | 93% | 1015.4 hPa | 0 mm | - | 0 W/m² | - |
| 1777793156 | -0.56° C | 92% | 1015.4 hPa | 0 mm | - | 0 W/m² | - |
| 1777792853 | -0.56° C | 92% | 1015.2 hPa | 0 mm | - | 0 W/m² | - |
| 1777792550 | 0° C | 91% | 1015 hPa | 0 mm | - | 0 W/m² | - |
| 1777792247 | 0° C | 90% | 1014.9 hPa | 0 mm | - | 0 W/m² | - |
* Rain latest hour (hover to see other rain measurements)
** Current wind speed in m/s (hover to see current wind gust speed)